This demonstration page uses our WeatherBlox Daily Observations layout. Learn more.

Hourly Observations for July 16, 2020

Temp ( °F °C ) Dew Point ( °F °C ) Humidity (%) Winds ( mph kmh ) Pressure ( in mb ) Visibility ( mi km ) Precip ( " mm )
12:54 am 00:54 Clear 69 20.6 65 18.3 87 87 ESE 3 6 30.02 1017 10 16.0934 0 0
1:54 am 01:54 Mostly Clear 67 19.4 64 17.8 91 91 Calm 30.03 1017 9 14.48406 0 0
2:35 am 02:35 Mostly Cloudy 65 18.3 62 16.7 90 90 Calm 30.03 1017 10 16.0934 0 0
2:52 am 02:52 Cloudy 68 20 64 18 88 88 WNW 3 6 30.04 1017 9 14.48406 0 0
2:54 am 02:54 Cloudy 68 20 64 17.8 87 87 Calm 30.04 1017 9 14.48406 0 0
3:10 am 03:10 Cloudy 68 20 64 17.8 87 87 Calm 30.04 1017 9 14.48406 0 0
3:20 am 03:20 Mostly Cloudy 65 18.3 61 16.1 87 87 Calm 30.05 1018 10 16.0934 0 0
3:50 am 03:50 Partly Cloudy 63 17 61 16 94 94 Calm 30.06 1018 10 16.0934 0 0
3:54 am 03:54 Partly Cloudy 63 17.2 60 15.6 90 90 Calm 30.06 1018 10 16.0934 0 0
4:09 am 04:09 Mostly Cloudy 62 16.7 59 15 90 90 Calm 30.05 1018 10 16.0934 0 0
4:51 am 04:51 Cloudy with Mist and Fog 66 19 63 17 88 88 Calm 30.03 1017 1.5 2.41401 0 0
4:54 am 04:54 Cloudy with Mist and Fog 66 18.9 64 17.8 93 93 Calm 30.03 1017 0.75 1.207005 0 0
5:39 am 05:39 Mostly Cloudy with Fog 66 18.9 64 17.8 93 93 SSW 3 6 30.05 1018 0.25 0.402335 0 0
5:54 am 05:54 Mostly Cloudy with Fog 65 18.3 64 17.8 97 97 SSW 3 6 30.05 1018 0.5 0.80467 0 0
6:05 am 06:05 Mostly Cloudy with Fog 66 18.9 64 17.8 93 93 Calm 30.05 1018 0.25 0.402335 0 0
6:11 am 06:11 Mostly Cloudy with Fog 65 18.3 64 17.8 97 97 Calm 30.05 1018 0.5 0.80467 0 0
6:17 am 06:17 Mostly Cloudy with Fog 66 18.9 64 17.8 93 93 Calm 30.05 1018 0.25 0.402335 0 0
6:36 am 06:36 Mostly Cloudy with Fog 66 18.9 64 17.8 93 93 Calm 30.04 1017 0.25 0.402335 0 0
6:54 am 06:54 Mostly Cloudy with Fog 65 18.3 64 17.8 97 97 S 3 6 30.04 1017 0.25 0.402335 0 0
7:07 am 07:07 Mostly Cloudy with Fog 65 18.3 64 17.8 97 97 Calm 30.04 1017 0.25 0.402335 0 0
7:15 am 07:15 Mostly Cloudy with Fog 66 18.9 64 17.8 93 93 S 3 6 30.03 1017 0.25 0.402335 0 0
7:26 am 07:26 Mostly Cloudy with Fog 66 18.9 64 17.8 93 93 S 5 7 30.03 1017 0.25 0.402335 0 0
7:54 am 07:54 Mostly Cloudy with Fog 67 19.4 65 18.3 93 93 Calm 30.04 1017 0.25 0.402335 0 0
8:08 am 08:08 Mostly Cloudy with Fog 67 19.4 66 18.9 97 97 S 3 6 30.04 1017 0.5 0.80467 0 0
8:13 am 08:13 Mostly Cloudy with Mist and Fog 68 20 66 18.9 93 93 S 3 6 30.04 1017 2 3.21868 0 0
8:20 am 08:20 Partly Cloudy with Mist and Fog 68 20 66 18.9 93 93 S 3 6 30.05 1018 5 8.0467 0 0
8:54 am 08:54 Sunny 71 21.7 67 19.4 87 87 SSW 5 7 30.06 1018 9 14.48406 0 0
9:13 am 09:13 Mostly Cloudy 74 23.3 68 20 82 82 SSW 9 15 30.04 1017 9 14.48406 0 0
9:51 am 09:51 Partly Cloudy 77 25 70 21 79 79 SSW 10 17 30.02 1016 10 16.0934 0 0
9:54 am 09:54 Mostly Sunny 77 25 68 20 74 74 SSW 9 15 30.04 1017 10 16.0934 0 0
10:54 am 10:54 Mostly Sunny 80 26.7 68 20 67 67 SSW 13 20 30.04 1017 10 16.0934 0.001 0.001
11:13 am 11:13 Mostly Cloudy 81 27.2 68 20 65 65 SSW 10 17 30.01 1016 10 16.0934 0 0
11:54 am 11:54 Mostly Cloudy 81 27.2 69 20.6 67 67 SSW 12 19 30.03 1017 10 16.0934 0 0
12:41 pm 12:41 Partly Cloudy 83 28.3 70 21.1 65 65 SSE 9 15 29.98 1015 10 16.0934 0 0
12:54 pm 12:54 Partly Cloudy 83 28.3 69 20.6 63 63 S 8 13 30.01 1016 10 16.0934 0 0
1:54 pm 13:54 Mostly Cloudy 84 28.9 69 20.6 61 61 S 6 9 30 1016 10 16.0934 0 0
2:54 pm 14:54 Partly Cloudy 86 30 69 20.6 57 57 SSE 8 13 29.98 1015 10 16.0934 0 0
3:54 pm 15:54 Partly Cloudy 86 30 69 20.6 57 57 SSE 8 13 29.97 1015 10 16.0934 0 0
4:54 pm 16:54 Mostly Cloudy 87 30.6 70 21.1 57 57 SE 8 13 29.97 1015 10 16.0934 0 0
5:54 pm 17:54 Mostly Sunny 86 30 70 21.1 59 59 SSE 9 15 29.96 1015 10 16.0934 0 0
6:54 pm 18:54 Mostly Cloudy 86 30 70 21.1 59 59 SSE 13 20 29.96 1015 10 16.0934 0 0
7:54 pm 19:54 Partly Cloudy 84 28.9 71 21.7 65 65 SE 13 20 29.97 1015 10 16.0934 0 0
8:54 pm 20:54 Sunny 81 27.2 71 21.7 72 72 SE 13 20 29.98 1015 10 16.0934 0 0
9:54 pm 21:54 Clear 80 26.7 71 21.7 74 74 SSE 10 17 30 1016 10 16.0934 0 0
10:54 pm 22:54 Clear 79 26.1 71 21.7 77 77 SSE 9 15 30.02 1017 10 16.0934 0 0
11:54 pm 23:54 Clear 77 25 71 21.7 82 82 SSE 9 15 30.01 1016 10 16.0934 0 0

Powered by AerisWeather